Regional Weather Roundup
Issued by NWS

Home | Current Version | Previous Version | Graphics & Text | Print | Product List | Glossary On
Versions: 1 2 3 4 5 6 7 8 9 10 11 12 13 14 15 16 17 18 19 20 21 22 23 24 25 26 27 28 29 30 31 32 33 34 35 36 37 38 39 40 41 42 43 44 45 46 47 48 49 50
336
ASUS45 KBOU 291407
RWRCO

WEATHER ROUNDUP FOR COLORADO
NATIONAL WEATHER SERVICE DENVER/BOULDER CO
800 AM MDT SAT APR 29 2017

NOTE: "FAIR" INDICATES FEW OR NO CLOUDS BELOW 12000 FEET WITH NO
SIGNIFICANT WEATHER AND/OR OBSTRUCTIONS TO VISIBILITY.

COZ001>005-013-030-031-291500-
...NORTHWEST COLORADO...

CITY           SKY/WX    TMP DP  RH WIND       PRES   REMARKS
CRAIG          CLOUDY    34  21  59 NE6       30.05R WCI  29
HAYDEN         FAIR      32  16  51 SE5       30.04R WCI  27
MEEKER         CLOUDY    32  24  72 VRB6      30.00R WCI  26
MOUNT WERNER   NOT AVBL
STEAMBOAT SPGS CLOUDY    31  15  52 NE3       30.03R
WALDEN           N/A     25  12  58 NE17G25   30.07R WCI  11
$$

COZ006>008-011-291500-
...WEST CENTRAL VALLEYS...

CITY           SKY/WX    TMP DP  RH WIND       PRES   REMARKS
GRAND JUNCTION CLOUDY    41  25  53 NE12      29.96R
MONTROSE       FOG       32  32 100 N3        29.97R VSB 3/4
EAGLE          PTSUNNY   28  27  93 CALM      30.04R
RIFLE          CLOUDY    40  27  59 CALM      29.98R
DELTA          PTSUNNY   37  35  92 CALM      29.96R
NUCLA          FAIR      36  30  80 E3        29.96R
$$

COZ017>023-064>068-291500-
...SOUTHWEST COLORADO...

CITY           SKY/WX    TMP DP  RH WIND       PRES   REMARKS
DURANGO        CLOUDY    29  24  82 N3        29.88R
CORTEZ         FOG       27  27 100 E7        29.89R VSB 1/4 WCI  19
PAGOSA SPRINGS LGT SNOW  28  27  95 W3        29.88S
TELLURIDE      CLOUDY    24  23  93 CALM      29.90R
WOLF CREEK PAS FOG       10   9  92 N17G24    29.88S VSB 1/2 WCI  -7
$$

COZ009-010-012-014-032>034-037-058>063-291500-
...CENTRAL COLORADO...

CITY           SKY/WX    TMP DP  RH WIND       PRES   REMARKS
ASPEN          FAIR      24  14  65 CALM      29.96R
BUENA VISTA    LGT SNOW  23  19  83 CALM      30.03R
COPPER MTN     LGT SNOW  14   9  79 MISG      29.95R
BERTHOUD PASS  HVY SNOW   3  -8  60 MISG      29.97R VSB<1/4
COTTONWOOD PAS LGT SNOW  21  18  86 CALM      30.00S
GUNNISON       FAIR      26  17  68 N6        29.94R WCI  19
KREMMLING      CLOUDY    34  21  60 E8        30.06R WCI  27
LEADVILLE      LGT SNOW  15  10  80 S10       29.97R WCI   2
SALIDA         CLOUDY    26  24  90 CALM      30.11R
SUNLIGHT       PTSUNNY   14  10  85 NE9       29.97R WCI   2
WILKERSON PASS CLOUDY   N/A N/A N/A NE10G22   29.98R
$$

COZ069>075-291500-
...SAN LUIS VALLEY/SANGRE DE CRISTO MOUNTAINS...

CITY           SKY/WX    TMP DP  RH WIND       PRES   REMARKS
ALAMOSA        LGT SNOW  25  23  92 W8        29.89R FOG     WCI  16
LA VETA PASS   HVY SNOW  16  12  86 NE29      30.01R VSB 1/4 WCI  -4
SAGUACHE       CLOUDY    30  10  43 NE12G20   29.92R WCI  21
$$

COZ035-036-038>040-291500-
...NORTHERN COLORADO FRONT RANGE...

CITY           SKY/WX    TMP DP  RH WIND       PRES   REMARKS
DENVER INTL AP LGT SNOW  30  27  88 NE13      30.16S VSB 3/4 WCI  20
DMNS CITY PARK   N/A     29  29 100 N7G15     30.17R WCI  22
AURORA         LGT SNOW  28  28  99 N10       30.15S FOG     WCI  19
FRONT RANGE AP LGT SNOW  30  30 100 N15G21    30.16  WCI  19
ERIE MUNI ARPT LGT SNOW  30  29  97 NE8       30.18F VSB 1   WCI  22
BOULDER MUN AP LGT SNOW  30  30 100 NW7       30.17F VSB 1   WCI  23
CENTENNIAL     LGT SNOW  27  27 100 N13G21    30.14S VSB 3/4 WCI  16
BROOMFIELD     LGT SNOW  30  28  93 N10       30.16F VSB 1   WCI  21
FORT COLLINS   LGT SNOW  30  28  93 N8        30.20F VSB 1   WCI  23
LONGMONT       LGT SNOW  33  32  94 N9        30.21S WCI  25
$$

COZ041-046-047-076>085-087-088-291500-
...PIKES PEAK/PALMER DIVIDE AND SOUTHERN FOOTHILLS...

CITY           SKY/WX    TMP DP  RH WIND       PRES   REMARKS
COLO. SPRINGS  CLOUDY    30  23  75 N16       30.07F WCI  19
A. F. ACADEMY  MIX PCPN  27  23  86 NW14      30.06F FOG     WCI  15
SCHRIEVER AFB  FLURRIES  27  25  93 N17G23    30.06  WCI  14
ELLICOTT       LGT SNOW N/A N/A N/A NE25G32   30.02F
FALCON         LGT SNOW  26  24  89 N16G22    30.04F WCI  14
FORT CARSON    NOT AVBL
LIMON          LGT SNOW  28  27  96 N25       30.07F VSB 1   WCI  13
MONUMENT HILL  CLOUDY    23  21  93 N14G21    30.09S WCI  11
TRINIDAD       LGT SNOW  29  26  89 N12       30.05R VSB 3/4 WCI  19
$$

COZ042>045-048>051-090-091-291500-
...NORTHEAST COLORADO...

CITY           SKY/WX    TMP DP  RH WIND       PRES   REMARKS
GREELEY ARPT   FLURRIES  33  30  88 N10       30.21F WCI  25
AKRON          LGT SNOW  31  28  89 N15       30.15S FOG     WCI  20
BURLINGTON     NOT AVBL
WRAY           NOT AVBL
STERLING       CLOUDY    36  32  87 N13       30.18S
HOLYOKE        LGT RAIN  37  32  81 N18       30.15F
FORT MORGAN    LGT SNOW  32  30  92 N12       30.19F WCI  23
$$

COZ086-089-092>099-291500-
...SOUTHEAST COLORADO...

CITY           SKY/WX    TMP DP  RH WIND       PRES   REMARKS
PUEBLO         LGT SNOW  32  29  88 N9        30.09S FOG     WCI  24
LA JUNTA       SNOW      33  31  92 N15       30.06R VSB 1/2 WCI  23
LAMAR          SNOW      33  31  92 N14       30.00F VSB 1/4 WCI  23
SPRINGFIELD      N/A     30  30 100 N24       29.97R WCI  16
$$




USA.gov is the U.S. government's official web portal to all federal, state and local government web resources and services.